Regional Weather Roundup
Issued by NWS

Home | Current Version | Previous Version | Text Only | Print | Product List | Glossary On
Versions: 1 2 3 4 5 6 7 8 9 10 11 12 13 14 15 16 17 18 19 20 21 22 23 24 25 26 27 28 29 30 31 32 33 34 35 36 37 38 39 40 41 42 43 44 45 46 47 48 49 50
700
ASUS44 KLIX 282210
RWRLA
LOUISIANA WEATHER ROUNDUP
NATIONAL WEATHER SERVICE NEW ORLEANS LA
400 PM CST FRI NOV 28 2014

NOTE: "FAIR" INDICATES FEW OR NO CLOUDS BELOW 12,000 FEET WITH NO
      SIGNIFICANT WEATHER AND/OR OBSTRUCTIONS TO VISIBILITY.
      SKY/WX - SKY CONDITION AND SIGNIFICANT WEATHER.
      TMP - AIR TEMPERATURE.    DP   - DEWPOINT TEMPERATURE.
      RH  - RELATIVE HUMIDITY.  PRES - PRESSURE.
      HX  - HEAT INDEX.         WCI  - WIND CHILL INDEX.

*  THESE STATIONS ARE NOT NWS OR FAA STATIONS AND ARE NOT UNDER
   NWS QUALITY CONTROL.

LAZ040-048-061>063-065-066-069-282300-
SOUTHEAST LOUISIANA

CITY           SKY/WX    TMP DP  RH WIND       PRES   REMARKS
N.O. AUDUBON     N/A     59  44  58 MISG        N/A
N.O. INTL ARPT MOSUNNY   59  42  53 SE10      30.29F
N.O. LAKEFRONT SUNNY     57  42  57 E8        30.31F
N.O. DOWNTOWN* FAIR      55  39  54 E6        30.31S
SLIDELL        SUNNY     56  36  47 S9        30.30F
BATON ROUGE    SUNNY     61  32  33 SE8       30.27F
BOOTHVILLE     SUNNY     58  48  69 NE8       30.31S
BELLE CHASSE   MOSUNNY   58  39  49 SE8       30.30F
BOGALUSA*        N/A     62  25  24 S6        30.30S
NEW ROADS*     FAIR      61  34  35 E5        30.27S
GONZALES*      FAIR      62  35  36 SE3       30.28S
HAMMOND*       SUNNY     59  32  36 S6        30.31F
HOUMA*         SUNNY     61  45  55 SE7       30.30S
PORT FOURCHON* CLEAR     61  48  63 E7        30.33S

$$

LAZ041-044-053-054-282300-
SOUTHWEST LOUISIANA

CITY           SKY/WX    TMP DP  RH WIND       PRES   REMARKS
LAKE CHARLES   CLOUDY    62  53  72 S10       30.24F
LAFAYETTE      SUNNY     61  48  62 S9        30.27S SMOKE
PATTERSON      SUNNY     63  45  51 SE7       30.30F
SALT POINT       N/A     64  49  57 SE8       30.28S
NEW IBERIA     SUNNY     63  49  60 S13       30.28S
CHENAULT AIRPK NOT AVBL

$$

LAZ027-028-282300-
CENTRAL LOUISIANA

CITY           SKY/WX    TMP DP  RH WIND       PRES   REMARKS
FORT POLK      SUNNY     63  48  57 S14       30.21F
ALEXANDRIA INT SUNNY     63  42  46 S8        30.21F
ALEXANDRIA     SUNNY     61  39  44 S9        30.23F

$$

LAZ001-002-282300-
NORTHWEST LOUISIANA

CITY           SKY/WX    TMP DP  RH WIND       PRES   REMARKS
SHREVEPORT     SUNNY     65  42  43 S10       30.14F
BARKSDALE AFB  SUNNY     65  40  40 S10       30.15F
DTN SHREVEPORT SUNNY     64  39  39 S13       30.15F

$$

LAZ014-016-282300-
NORTHEAST LOUISIANA

CITY           SKY/WX    TMP DP  RH WIND       PRES   REMARKS
MONROE         SUNNY     61  35  37 S8        30.20F
TALLULAH       SUNNY     61  25  25 S10       30.23F

$$




USA.gov is the U.S. government's official web portal to all federal, state and local government web resources and services.